• In Hungary
  • List of Countries
  • For 7 days
  • Water Temperature
  • Satellite Maps
  • Weather Map
  • News
  • Weather Widgets
  • user-avatar
    Login

    Hourly Weather Gabrovo

    Today, 22 October, Sunday

    Time Temperature Precipitation Wind Pressure Humidity
    00:00 +14°C° 0 mm 2 mps 701 mmHg 55%
    01:00 +14°C° 0 mm 2 mps 701 mmHg 56%
    02:00 +14°C° 0 mm 2 mps 701 mmHg 57%
    03:00 +13°C° 0 mm 2 mps 701 mmHg 59%
    04:00 +13°C° 0 mm 2 mps 701 mmHg 61%
    05:00 +13°C° 0 mm 2 mps 701 mmHg 62%
    06:00 +13°C° 0 mm 2 mps 701 mmHg 61%
    07:00 +13°C° 0 mm 2 mps 701 mmHg 61%
    08:00 +14°C° 0 mm 2 mps 701 mmHg 56%
    09:00 +16°C° 0 mm 2 mps 702 mmHg 51%
    10:00 +17°C° 0 mm 2 mps 702 mmHg 46%
    11:00 +19°C° 0 mm 2 mps 702 mmHg 41%
    12:00 +20°C° 0 mm 1 mps 702 mmHg 39%
    13:00 +21°C° 0 mm 1 mps 702 mmHg 37%
    14:00 +22°C° 0 mm 1 mps 702 mmHg 36%
    15:00 +21°C° 0 mm 1 mps 701 mmHg 39%
    16:00 +19°C° 0 mm 2 mps 701 mmHg 43%
    17:00 +18°C° 0 mm 2 mps 700 mmHg 46%
    18:00 +16°C° 0 mm 2 mps 700 mmHg 49%
    19:00 +15°C° 0 mm 2 mps 700 mmHg 52%
    20:00 +14°C° 0 mm 2 mps 700 mmHg 55%
    21:00 +14°C° 0 mm 2 mps 700 mmHg 58%
    22:00 +13°C° 0 mm 2 mps 700 mmHg 61%
    23:00 +12°C° 0 mm 3 mps 700 mmHg 64%

    Tomorrow, 23 October, Monday

    Time Temperature Precipitation Wind Pressure Humidity
    00:00 +11°C° 0 mm 3 mps 699 mmHg 67%
    01:00 +11°C° 0 mm 3 mps 699 mmHg 70%
    02:00 +10°C° 0 mm 3 mps 699 mmHg 74%
    03:00 +10°C° 0 mm 2 mps 698 mmHg 76%
    04:00 +10°C° 0 mm 2 mps 698 mmHg 78%
    05:00 +10°C° 0 mm 2 mps 697 mmHg 79%
    06:00 +10°C° 0 mm 2 mps 697 mmHg 80%
    07:00 +10°C° 0 mm 2 mps 697 mmHg 80%
    08:00 +10°C° 0 mm 3 mps 696 mmHg 80%
    09:00 +11°C° 0.1 mm 3 mps 696 mmHg 76%
    10:00 +13°C° 0.1 mm 2 mps 696 mmHg 73%
    11:00 +14°C° 0.1 mm 2 mps 696 mmHg 69%
    12:00 +15°C° 0.3 mm 2 mps 696 mmHg 68%
    13:00 +15°C° 0.3 mm 2 mps 695 mmHg 66%
    14:00 +16°C° 0.3 mm 2 mps 695 mmHg 64%
    15:00 +15°C° 0.6 mm 2 mps 694 mmHg 68%
    16:00 +15°C° 0.6 mm 2 mps 694 mmHg 72%
    17:00 +14°C° 0.6 mm 1 mps 693 mmHg 75%
    18:00 +14°C° 0.3 mm 2 mps 693 mmHg 77%
    19:00 +14°C° 0.3 mm 2 mps 693 mmHg 79%
    20:00 +13°C° 0.3 mm 2 mps 692 mmHg 81%
    21:00 +12°C° 0.6 mm 3 mps 692 mmHg 83%
    22:00 +12°C° 0.6 mm 3 mps 692 mmHg 85%
    23:00 +12°C° 0.6 mm 3 mps 692 mmHg 86%

    Day after tomorrow, 24 October, Tuesday

    Time Temperature Precipitation Wind Pressure Humidity
    00:00 +12°C° 1.7 mm 3 mps 692 mmHg 87%
    01:00 +11°C° 1.7 mm 3 mps 691 mmHg 87%
    02:00 +11°C° 1.7 mm 3 mps 691 mmHg 87%
    03:00 +11°C° 1.6 mm 3 mps 691 mmHg 88%
    04:00 +10°C° 1.6 mm 2 mps 691 mmHg 89%
    05:00 +10°C° 1.6 mm 2 mps 691 mmHg 90%
    06:00 +10°C° 1.7 mm 2 mps 691 mmHg 89%
    07:00 +9°C° 1.7 mm 2 mps 691 mmHg 89%
    08:00 +9°C° 1.7 mm 2 mps 692 mmHg 89%
    09:00 +9°C° 1.3 mm 2 mps 692 mmHg 88%
    10:00 +10°C° 1.3 mm 2 mps 693 mmHg 87%
    11:00 +10°C° 1.3 mm 2 mps 693 mmHg 86%
    12:00 +10°C° 0.7 mm 2 mps 693 mmHg 85%
    13:00 +10°C° 0.7 mm 2 mps 693 mmHg 83%
    14:00 +12°C° 0.7 mm 2 mps 694 mmHg 82%
    15:00 +10°C° 1.5 mm 2 mps 694 mmHg 84%
    16:00 +10°C° 1.5 mm 2 mps 694 mmHg 86%
    17:00 +10°C° 1.5 mm 2 mps 695 mmHg 89%
    18:00 +10°C° 2.3 mm 2 mps 695 mmHg 89%
    19:00 +10°C° 2.3 mm 2 mps 696 mmHg 90%
    20:00 +10°C° 2.3 mm 3 mps 697 mmHg 91%
    21:00 +10°C° 1.7 mm 3 mps 697 mmHg 90%
    22:00 +10°C° 1.7 mm 3 mps 698 mmHg 90%
    23:00 +10°C° 1.7 mm 3 mps 698 mmHg 89%

    25 October, Wednesday

    Time Temperature Precipitation Wind Pressure Humidity
    00:00 +10°C° 0.8 mm 3 mps 698 mmHg 89%
    01:00 +10°C° 0.8 mm 4 mps 699 mmHg 89%
    02:00 +10°C° 0.8 mm 4 mps 699 mmHg 89%
    03:00 +8°C° 1.7 mm 4 mps 699 mmHg 88%
    04:00 +8°C° 1.7 mm 4 mps 700 mmHg 87%
    05:00 +8°C° 1.7 mm 4 mps 700 mmHg 86%
    06:00 +7°C° 2 mm 4 mps 701 mmHg 86%
    07:00 +6°C° 2 mm 4 mps 701 mmHg 87%
    08:00 +7°C° 2 mm 3 mps 702 mmHg 87%
    09:00 +7°C° 1.9 mm 3 mps 703 mmHg 86%
    10:00 +7°C° 1.9 mm 3 mps 703 mmHg 85%
    11:00 +7°C° 1.9 mm 3 mps 704 mmHg 84%
    12:00 +7°C° 0.7 mm 3 mps 704 mmHg 81%
    13:00 +8°C° 0.7 mm 3 mps 704 mmHg 78%
    14:00 +8°C° 0.7 mm 3 mps 705 mmHg 75%
    15:00 +8°C° 0.2 mm 2 mps 705 mmHg 76%
    16:00 +8°C° 0.2 mm 2 mps 705 mmHg 77%
    17:00 +8°C° 0.2 mm 2 mps 705 mmHg 78%
    18:00 +7°C° 0 mm 2 mps 706 mmHg 79%
    19:00 +7°C° 0 mm 2 mps 706 mmHg 80%
    20:00 +6°C° 0 mm 2 mps 706 mmHg 81%
    21:00 +6°C° 0 mm 2 mps 706 mmHg 81%
    22:00 +6°C° 0 mm 2 mps 707 mmHg 81%
    23:00 +7°C° 0 mm 1 mps 707 mmHg 81%

    26 October, Thursday

    Time Temperature Precipitation Wind Pressure Humidity
    00:00 +6°C° 0 mm 1 mps 707 mmHg 81%
    01:00 +6°C° 0 mm 1 mps 707 mmHg 81%
    02:00 +6°C° 0 mm 1 mps 707 mmHg 80%
    03:00 +6°C° 0 mm 1 mps 707 mmHg 80%
    04:00 +6°C° 0 mm 1 mps 707 mmHg 80%
    05:00 +6°C° 0 mm 1 mps 707 mmHg 80%
    06:00 +7°C° 0 mm 1 mps 707 mmHg 79%
    07:00 +7°C° 0 mm 1 mps 707 mmHg 78%
    08:00 +8°C° 0 mm 1 mps 707 mmHg 76%
    09:00 +10°C° 0 mm 1 mps 707 mmHg 70%
    10:00 +12°C° 0 mm 1 mps 708 mmHg 63%
    11:00 +13°C° 0 mm 1 mps 708 mmHg 56%
    12:00 +14°C° 0 mm 1 mps 707 mmHg 54%
    13:00 +15°C° 0 mm 2 mps 707 mmHg 52%
    14:00 +16°C° 0 mm 2 mps 707 mmHg 50%
    15:00 +15°C° 0 mm 1 mps 706 mmHg 54%
    16:00 +14°C° 0 mm 1 mps 706 mmHg 59%
    17:00 +13°C° 0 mm 1 mps 706 mmHg 63%
    18:00 +12°C° 0 mm 1 mps 706 mmHg 65%
    19:00 +11°C° 0 mm 1 mps 706 mmHg 66%
    20:00 +10°C° 0 mm 1 mps 706 mmHg 68%
    21:00 +10°C° 0 mm 1 mps 706 mmHg 68%
    22:00 +10°C° 0 mm 1 mps 706 mmHg 69%
    23:00 +10°C° 0 mm 1 mps 706 mmHg 69%

    27 October, Friday

    Time Temperature Precipitation Wind Pressure Humidity
    00:00 +10°C° 0 mm 1 mps 706 mmHg 70%
    01:00 +9°C° 0 mm 1 mps 706 mmHg 71%
    02:00 +9°C° 0 mm 1 mps 706 mmHg 72%
    03:00 +9°C° 0 mm 1 mps 705 mmHg 73%
    04:00 +9°C° 0 mm 1 mps 705 mmHg 73%
    05:00 +9°C° 0 mm 1 mps 705 mmHg 74%
    06:00 +9°C° 0 mm 1 mps 705 mmHg 73%
    07:00 +10°C° 0 mm 1 mps 705 mmHg 72%
    08:00 +10°C° 0 mm 1 mps 705 mmHg 71%
    09:00 +12°C° 0 mm 1 mps 705 mmHg 64%
    10:00 +14°C° 0 mm 2 mps 705 mmHg 57%
    11:00 +16°C° 0 mm 2 mps 705 mmHg 50%
    12:00 +16°C° 0 mm 2 mps 705 mmHg 48%
    13:00 +17°C° 0 mm 2 mps 704 mmHg 46%
    14:00 +18°C° 0 mm 2 mps 703 mmHg 44%
    15:00 +17°C° 0 mm 2 mps 703 mmHg 49%
    16:00 +16°C° 0 mm 1 mps 702 mmHg 54%
    17:00 +14°C° 0 mm 1 mps 701 mmHg 59%
    18:00 +14°C° 0 mm 1 mps 701 mmHg 61%
    19:00 +13°C° 0 mm 1 mps 701 mmHg 63%
    20:00 +12°C° 0 mm 1 mps 700 mmHg 65%
    21:00 +12°C° 0 mm 1 mps 700 mmHg 65%
    22:00 +11°C° 0 mm 1 mps 699 mmHg 66%
    23:00 +11°C° 0 mm 1 mps 699 mmHg 67%
    Show more